TimeCDT,TemperatureF,Dew PointF,Humidity,Sea Level PressureIn,VisibilityMPH,Wind Direction,Wind SpeedMPH,Gust SpeedMPH,PrecipitationIn,Events,Conditions,WindDirDegrees,DateUTC
12:53 AM,41.0,39.0,93,29.75,10.0,Calm,Calm,-,N/A,,Clear,0,2012-10-20 05:53:00
1:17 AM,39.2,37.4,93,29.73,2.5,North,4.6,-,N/A,,Partly Cloudy,350,2012-10-20 06:17:00
1:24 AM,39.2,37.4,93,29.74,1.2,Calm,Calm,-,N/A,,Scattered Clouds,0,2012-10-20 06:24:00
1:29 AM,39.2,37.4,93,29.74,3.0,Calm,Calm,-,N/A,,Scattered Clouds,0,2012-10-20 06:29:00
1:32 AM,39.2,37.4,93,29.74,2.5,Calm,Calm,-,N/A,,Mostly Cloudy,0,2012-10-20 06:32:00
1:37 AM,39.2,37.4,93,29.74,0.8,Calm,Calm,-,N/A,,Mist,0,2012-10-20 06:37:00
1:53 AM,39.9,37.9,93,29.75,0.2,NNW,4.6,-,N/A,Fog,Fog,340,2012-10-20 06:53:00
2:53 AM,39.0,37.9,96,29.75,0.2,Calm,Calm,-,N/A,Fog,Fog,0,2012-10-20 07:53:00
3:53 AM,39.0,37.9,96,29.76,0.2,SW,3.5,-,N/A,Fog,Fog,230,2012-10-20 08:53:00
4:53 AM,41.0,39.9,96,29.77,0.2,West,3.5,-,N/A,Fog,Fog,260,2012-10-20 09:53:00
5:53 AM,39.9,39.0,97,29.78,0.2,Calm,Calm,-,N/A,Fog,Fog,0,2012-10-20 10:53:00
6:46 AM,41.0,39.2,93,29.77,0.2,Calm,Calm,-,N/A,Fog,Fog,0,2012-10-20 11:46:00
6:53 AM,41.0,39.9,96,29.79,0.1,SW,3.5,-,N/A,Fog,Fog,220,2012-10-20 11:53:00
7:34 AM,41.0,39.2,93,29.77,0.1,Calm,Calm,-,N/A,Fog,Fog,0,2012-10-20 12:34:00
7:44 AM,41.0,41.0,100,29.78,0.1,Calm,Calm,-,N/A,Fog,Fog,0,2012-10-20 12:44:00
7:53 AM,41.0,39.9,96,29.80,0.1,Calm,Calm,-,N/A,Fog,Fog,0,2012-10-20 12:53:00
8:53 AM,43.0,42.1,97,29.81,0.2,Calm,Calm,-,N/A,Fog,Fog,0,2012-10-20 13:53:00
9:42 AM,44.6,44.6,100,29.80,1.0,South,6.9,-,N/A,,Mist,170,2012-10-20 14:42:00
9:47 AM,44.6,42.8,93,29.80,3.0,SSW,4.6,-,N/A,,Overcast,210,2012-10-20 14:47:00
9:53 AM,44.1,43.0,96,29.82,4.0,SSW,3.5,-,N/A,,Overcast,200,2012-10-20 14:53:00
10:53 AM,46.0,44.1,93,29.83,9.0,SSW,4.6,-,N/A,,Overcast,210,2012-10-20 15:53:00
11:16 AM,46.4,44.6,93,29.81,10.0,South,5.8,-,N/A,,Overcast,170,2012-10-20 16:16:00
11:34 AM,48.2,44.6,87,29.81,10.0,SSW,6.9,-,N/A,,Overcast,200,2012-10-20 16:34:00
11:53 AM,48.0,43.0,83,29.82,10.0,SSW,8.1,-,N/A,,Overcast,200,2012-10-20 16:53:00
12:53 PM,48.9,42.1,77,29.82,10.0,SW,9.2,-,N/A,,Overcast,230,2012-10-20 17:53:00
1:04 PM,48.2,42.8,82,29.80,10.0,SSW,4.6,-,N/A,,Overcast,210,2012-10-20 18:04:00
1:53 PM,53.1,42.1,66,29.79,10.0,South,9.2,-,N/A,,Mostly Cloudy,180,2012-10-20 18:53:00
2:04 PM,51.8,42.8,71,29.77,10.0,South,10.4,-,N/A,,Scattered Clouds,170,2012-10-20 19:04:00
2:53 PM,52.0,42.1,69,29.79,10.0,South,8.1,-,N/A,,Scattered Clouds,180,2012-10-20 19:53:00
3:53 PM,51.1,43.0,74,29.79,10.0,SSW,8.1,-,N/A,,Overcast,200,2012-10-20 20:53:00
4:53 PM,50.0,42.1,74,29.79,10.0,SSW,8.1,-,N/A,,Overcast,210,2012-10-20 21:53:00
5:53 PM,48.9,42.1,77,29.81,10.0,South,10.4,-,N/A,,Overcast,170,2012-10-20 22:53:00
6:53 PM,50.0,43.0,77,29.80,10.0,SE,6.9,-,N/A,,Overcast,130,2012-10-20 23:53:00
7:53 PM,50.0,43.0,77,29.80,10.0,SE,8.1,-,N/A,,Overcast,140,2012-10-21 00:53:00
8:53 PM,48.9,43.0,80,29.81,10.0,SSE,10.4,-,N/A,,Scattered Clouds,150,2012-10-21 01:53:00
9:53 PM,48.0,42.1,80,29.81,10.0,SSE,8.1,-,N/A,,Clear,150,2012-10-21 02:53:00
10:53 PM,48.0,43.0,83,29.81,10.0,SSE,9.2,-,N/A,,Clear,150,2012-10-21 03:53:00
11:53 PM,48.0,43.0,83,29.82,10.0,SSE,6.9,-,N/A,,Clear,150,2012-10-21 04:53:00